M I D A S
Marine Information and Data Acquisition System
Tripno 1830 of the Zeeleeuw from 2009-12-09 07:18:40 to 2009-12-09 15:15:33
Back to CruiseResearch ActivitiesStationsMapUnderway DataData graphs

EquipmentUnitsComments
TimeDGPSUTC
LatitudeDGPSDM.mWGS84
LongitudeDGPSDM.mWGS84
SpeedMeteo Stationm/sRelative wind speed
DirectionMeteo StationdegRelative wind direction
TemperatureMeteo Stationdeg CelciusAir temperature
PressureMeteo StationPaAtmospheric pressure
HumidityMeteo Station%Relative humidity
Missing or incorrect values are displayed as -999
Metereological data collected by the RV Zeeleeuw from 2009-12-09 07:27:41 to 2009-12-09 17:35:34
                                                                                    Next 1000 lines
Time Latitude Longitude Speed Direction Temperature Pressure Humidity
2009-12-09 07:27:51 51°13.661 2°55.956 2.8 3 8.7 101840 49
2009-12-09 07:27:56 51°13.662 2°55.954 2.9 13 8.7 101840 49
2009-12-09 07:28:01 51°13.663 2°55.952 3.7 9 8.7 101850 47
2009-12-09 07:28:06 51°13.665 2°55.949 2.9 16 8.7 101850 47
2009-12-09 07:28:11 51°13.666 2°55.945 2.8 25 8.7 101840 45
2009-12-09 07:28:17 51°13.668 2°55.94 3.9 24 8.7 101840 45
2009-12-09 07:28:22 51°13.669 2°55.934 5.9 17 8.7 101850 44
2009-12-09 07:28:28 51°13.671 2°55.927 4.2 15 8.7 101850 44
2009-12-09 07:28:34 51°13.672 2°55.92 4 21 8.7 101840 48
2009-12-09 07:28:40 51°13.674 2°55.912 3.4 22 8.7 101840 48
2009-12-09 07:28:45 51°13.676 2°55.905 3.9 37 8.7 101850 44
2009-12-09 07:28:50 51°13.677 2°55.898 3.9 32 8.7 101850 44
2009-12-09 07:28:55 51°13.679 2°55.891 2.6 35 8.7 101850 44
2009-12-09 07:29:00 51°13.68 2°55.884 3 40 8.7 101850 44
2009-12-09 07:29:05 51°13.682 2°55.877 1.6 15 8.7 101840 49
2009-12-09 07:29:10 51°13.683 2°55.869 2.1 28 8.7 101840 49
2009-12-09 07:29:15 51°13.684 2°55.862 2.8 25 8.7 101850 47
2009-12-09 07:29:20 51°13.686 2°55.854 2.5 25 8.7 101850 47
2009-12-09 07:29:25 51°13.688 2°55.847 2.8 43 8.7 101840 48
2009-12-09 07:29:30 51°13.69 2°55.839 3.1 23 8.7 101840 48
2009-12-09 07:29:35 51°13.692 2°55.832 1.6 25 8.7 101850 48
2009-12-09 07:29:40 51°13.695 2°55.824 4.6 20 8.7 101850 48
2009-12-09 07:29:45 51°13.697 2°55.817 3.7 25 8.7 101840 45
2009-12-09 07:29:50 51°13.7 2°55.81 3.4 18 8.7 101840 45
2009-12-09 07:29:55 51°13.703 2°55.802 2.2 25 8.7 101840 45
2009-12-09 07:30:00 51°13.706 2°55.794 3.5 8 8.7 101840 45
2009-12-09 07:30:05 51°13.709 2°55.787 3.3 16 8.7 101840 47
2009-12-09 07:30:10 51°13.712 2°55.78 2.4 9 8.7 101840 47
2009-12-09 07:30:15 51°13.716 2°55.773 1 19 8.7 101840 50
2009-12-09 07:30:20 51°13.719 2°55.765 2.8 23 8.7 101840 50
2009-12-09 07:30:25 51°13.722 2°55.759 2 23 8.7 101850 45
2009-12-09 07:30:30 51°13.725 2°55.752 2.6 23 8.7 101850 45
2009-12-09 07:30:35 51°13.726 2°55.746 2.7 4 8.7 101850 43
2009-12-09 07:30:40 51°13.728 2°55.74 3.6 12 8.7 101850 43
2009-12-09 07:30:45 51°13.731 2°55.735 2.4 13 8.7 101850 49
2009-12-09 07:30:50 51°13.734 2°55.729 4.2 23 8.7 101850 49
2009-12-09 07:30:55 51°13.737 2°55.724 4.1 20 8.7 101850 44
2009-12-09 07:31:00 51°13.741 2°55.718 3.5 20 8.7 101850 44
2009-12-09 07:31:05 51°13.745 2°55.713 3.5 13 8.7 101850 49
2009-12-09 07:31:10 51°13.75 2°55.708 3.5 9 8.7 101850 49
2009-12-09 07:31:15 51°13.754 2°55.704 2.8 6 8.7 101850 47
2009-12-09 07:31:20 51°13.757 2°55.698 1.8 357 8.7 101850 47
2009-12-09 07:31:25 51°13.761 2°55.694 3.1 3 8.7 101850 44
2009-12-09 07:31:30 51°13.764 2°55.688 2.6 19 8.7 101850 44
2009-12-09 07:31:35 51°13.768 2°55.683 2.9 15 8.7 101850 46
2009-12-09 07:31:40 51°13.772 2°55.678 2.3 12 8.7 101850 46
2009-12-09 07:31:45 51°13.776 2°55.674 2 18 8.8 101850 49
2009-12-09 07:31:50 51°13.781 2°55.669 1.4 12 8.8 101850 49
2009-12-09 07:31:55 51°13.785 2°55.664 1 1 8.8 101850 43
2009-12-09 07:32:00 51°13.789 2°55.66 0.5 351 8.8 101850 43
2009-12-09 07:32:04 51°13.793 2°55.656 1.4 349 8.8 101850 45
2009-12-09 07:32:10 51°13.799 2°55.652 0.1 346 8.8 101850 45
2009-12-09 07:32:15 51°13.804 2°55.649 0.1 355 8.8 101850 45
2009-12-09 07:32:20 51°13.809 2°55.646 0.1 356 8.8 101850 45
2009-12-09 07:32:25 51°13.815 2°55.643 0.1 354 8.8 101850 47
2009-12-09 07:32:30 51°13.821 2°55.64 -999 9 8.8 101850 47
2009-12-09 07:32:35 51°13.826 2°55.637 -999 6 8.8 101850 46
2009-12-09 07:32:40 51°13.832 2°55.635 -999 354 8.8 101850 46
2009-12-09 07:32:45 51°13.839 2°55.633 0.1 1 8.8 101850 46
2009-12-09 07:32:50 51°13.845 2°55.631 0.1 359 8.8 101850 46
2009-12-09 07:32:55 51°13.851 2°55.63 0.1 358 8.8 101850 46
2009-12-09 07:32:59 51°13.856 2°55.629 -999 306 8.8 101850 46
2009-12-09 07:33:04 51°13.863 2°55.628 0.1 23 8.8 101850 46
2009-12-09 07:33:10 51°13.87 2°55.627 0.6 321 8.8 101850 46
2009-12-09 07:33:15 51°13.876 2°55.627 0.3 19 8.8 101850 46
2009-12-09 07:33:20 51°13.881 2°55.628 0.1 306 8.8 101850 46
2009-12-09 07:33:24 51°13.886 2°55.628 0.1 320 8.8 101850 46
2009-12-09 07:33:30 51°13.892 2°55.629 -999 306 8.8 101850 46
2009-12-09 07:33:35 51°13.897 2°55.63 -999 26 8.8 101850 46
2009-12-09 07:33:39 51°13.9 2°55.632 0.1 306 8.8 101850 46
2009-12-09 07:33:44 51°13.905 2°55.633 0.1 22 8.8 101850 46
2009-12-09 07:33:50 51°13.91 2°55.635 0.1 308 8.8 101850 46
2009-12-09 07:33:55 51°13.913 2°55.637 0.8 245 8.8 101850 47
2009-12-09 07:33:59 51°13.916 2°55.639 2.4 303 8.8 101850 47
2009-12-09 07:34:05 51°13.92 2°55.641 3.7 245 8.8 101850 46
2009-12-09 07:34:10 51°13.923 2°55.643 3.7 307 8.8 101850 46
2009-12-09 07:34:15 51°13.926 2°55.645 4 26 8.8 101860 46
2009-12-09 07:34:20 51°13.929 2°55.647 3.5 304 8.8 101860 46
2009-12-09 07:34:24 51°13.93 2°55.648 2.6 27 8.8 101860 44
2009-12-09 07:34:29 51°13.932 2°55.649 3.2 308 8.8 101860 44
2009-12-09 07:34:34 51°13.933 2°55.65 3.6 22 8.8 101860 46
2009-12-09 07:34:39 51°13.935 2°55.65 3.2 307 8.8 101860 46
2009-12-09 07:34:44 51°13.935 2°55.65 3.4 25 8.8 101860 50
2009-12-09 07:34:49 51°13.936 2°55.649 4.3 303 8.8 101860 50
2009-12-09 07:34:53 51°13.936 2°55.647 3.7 21 8.8 101860 43
2009-12-09 07:34:58 51°13.936 2°55.645 4.1 309 8.8 101860 43
2009-12-09 07:35:03 51°13.936 2°55.641 3.9 20 8.8 101860 44
2009-12-09 07:35:08 51°13.937 2°55.637 5.6 303 8.8 101860 44
2009-12-09 07:35:13 51°13.937 2°55.632 4.4 252 8.8 101860 49
2009-12-09 07:35:17 51°13.938 2°55.628 4.1 309 8.8 101860 49
2009-12-09 07:35:22 51°13.94 2°55.622 2.4 262 8.8 101860 47
2009-12-09 07:35:27 51°13.941 2°55.617 2.8 57 8.8 101860 47
2009-12-09 07:35:32 51°13.944 2°55.611 3.7 266 8.8 101860 47
2009-12-09 07:35:37 51°13.946 2°55.605 2.5 308 8.8 101860 47
2009-12-09 07:35:42 51°13.949 2°55.598 3.1 257 8.8 101860 49
2009-12-09 07:35:47 51°13.953 2°55.59 4.4 309 8.8 101860 49
2009-12-09 07:35:51 51°13.956 2°55.584 5.9 258 8.8 101860 45
2009-12-09 07:35:56 51°13.961 2°55.575 4.5 309 8.8 101860 45
2009-12-09 07:36:01 51°13.966 2°55.566 4.4 21 8.8 101860 46
2009-12-09 07:36:06 51°13.971 2°55.557 3.1 307 8.8 101860 46
2009-12-09 07:36:11 51°13.976 2°55.547 2.4 265 8.8 101850 49
2009-12-09 07:36:16 51°13.981 2°55.538 2 55 8.8 101850 49
2009-12-09 07:36:21 51°13.987 2°55.53 2.3 23 8.8 101860 48
2009-12-09 07:36:26 51°13.993 2°55.521 3 57 8.8 101860 48
2009-12-09 07:36:31 51°13.999 2°55.512 3.1 23 8.8 101850 48
2009-12-09 07:36:36 51°14.006 2°55.504 2.8 49 8.8 101850 48
2009-12-09 07:36:41 51°14.013 2°55.496 4.1 19 8.8 101860 45
2009-12-09 07:36:46 51°14.021 2°55.488 2.3 311 8.8 101860 45
2009-12-09 07:36:51 51°14.028 2°55.48 1.8 253 8.8 101860 44
2009-12-09 07:36:56 51°14.037 2°55.472 1.5 306 8.8 101860 44
2009-12-09 07:37:01 51°14.045 2°55.465 2.6 18 8.8 101860 44
2009-12-09 07:37:06 51°14.054 2°55.457 3.3 303 8.8 101860 44
2009-12-09 07:37:11 51°14.062 2°55.449 2.8 256 8.9 101860 43
2009-12-09 07:37:16 51°14.071 2°55.441 3.5 302 8.9 101860 43
2009-12-09 07:37:21 51°14.08 2°55.434 3.2 21 8.9 101860 43
2009-12-09 07:37:26 51°14.089 2°55.426 2.2 303 8.9 101860 43
2009-12-09 07:37:31 51°14.099 2°55.419 2 258 8.9 101860 47
2009-12-09 07:37:36 51°14.109 2°55.412 1.2 305 8.9 101860 47
2009-12-09 07:37:41 51°14.119 2°55.404 1.4 260 8.9 101860 44
2009-12-09 07:37:46 51°14.13 2°55.397 1.6 309 8.9 101860 44
2009-12-09 07:37:51 51°14.14 2°55.389 0.5 267 8.8 101860 45
2009-12-09 07:37:56 51°14.15 2°55.38 0.1 306 8.8 101860 45
2009-12-09 07:38:01 51°14.16 2°55.371 0.5 318 8.8 101860 49
2009-12-09 07:38:06 51°14.171 2°55.362 3 303 8.8 101860 49
2009-12-09 07:38:11 51°14.181 2°55.352 2.4 26 8.8 101860 46
2009-12-09 07:38:16 51°14.191 2°55.341 2.4 304 8.8 101860 46
2009-12-09 07:38:21 51°14.202 2°55.33 2.9 18 8.9 101860 48
2009-12-09 07:38:25 51°14.209 2°55.32 2.9 307 8.9 101860 48
2009-12-09 07:38:31 51°14.221 2°55.306 2 252 8.9 101860 48
2009-12-09 07:38:36 51°14.231 2°55.293 2.3 305 8.9 101860 48
2009-12-09 07:38:41 51°14.24 2°55.279 2.2 20 8.9 101850 49
2009-12-09 07:38:46 51°14.25 2°55.265 3.4 310 8.9 101850 49
2009-12-09 07:38:51 51°14.259 2°55.249 3.4 251 8.9 101860 49
2009-12-09 07:38:56 51°14.268 2°55.233 3.7 304 8.9 101860 49
2009-12-09 07:39:01 51°14.277 2°55.216 3.5 18 8.9 101860 45
2009-12-09 07:39:06 51°14.286 2°55.198 4.8 308 8.9 101860 45
2009-12-09 07:39:11 51°14.295 2°55.18 6.1 22 8.9 101860 50
2009-12-09 07:39:16 51°14.305 2°55.162 5.7 302 8.9 101860 50
2009-12-09 07:39:21 51°14.314 2°55.143 5 25 8.9 101850 44
2009-12-09 07:39:26 51°14.324 2°55.124 6.1 308 8.9 101850 44
2009-12-09 07:39:31 51°14.334 2°55.106 4.9 27 8.9 101850 47
2009-12-09 07:39:36 51°14.344 2°55.086 3.1 309 8.9 101850 47
2009-12-09 07:39:41 51°14.355 2°55.068 4.4 25 8.9 101850 47
2009-12-09 07:39:45 51°14.362 2°55.052 2.9 310 8.9 101850 47
2009-12-09 07:39:51 51°14.375 2°55.031 4.4 244 8.9 101850 49
2009-12-09 07:39:56 51°14.386 2°55.014 3.5 309 8.9 101850 49
2009-12-09 07:40:01 51°14.397 2°54.998 4 26 8.9 101850 48
2009-12-09 07:40:06 51°14.409 2°54.982 3.3 310 8.9 101850 48
2009-12-09 07:40:11 51°14.421 2°54.968 2.5 22 8.9 101850 44
2009-12-09 07:40:16 51°14.434 2°54.954 2.9 302 8.9 101850 44
2009-12-09 07:40:21 51°14.448 2°54.941 3.5 20 8.9 101850 46
2009-12-09 07:40:26 51°14.461 2°54.929 3.5 309 8.9 101850 46
2009-12-09 07:40:31 51°14.475 2°54.918 5 254 8.9 101850 44
2009-12-09 07:40:36 51°14.49 2°54.907 4 307 8.9 101850 44
2009-12-09 07:40:41 51°14.505 2°54.897 2.5 260 8.9 101860 48
2009-12-09 07:40:46 51°14.52 2°54.886 3.7 308 8.9 101860 48
2009-12-09 07:40:51 51°14.535 2°54.877 3.9 23 8.9 101850 49
2009-12-09 07:40:56 51°14.549 2°54.866 2.6 303 8.9 101850 49
2009-12-09 07:41:01 51°14.563 2°54.856 1.8 261 8.9 101850 49
2009-12-09 07:41:06 51°14.577 2°54.844 2.6 307 8.9 101850 49
2009-12-09 07:41:11 51°14.591 2°54.833 3 246 8.9 101850 48
2009-12-09 07:41:16 51°14.606 2°54.822 2.8 310 8.9 101850 48
2009-12-09 07:41:21 51°14.62 2°54.811 2.7 253 8.9 101850 43
2009-12-09 07:41:25 51°14.631 2°54.801 3.4 308 8.9 101850 43
2009-12-09 07:41:31 51°14.648 2°54.788 3.7 254 8.9 101850 49
2009-12-09 07:41:36 51°14.661 2°54.776 3.5 302 8.9 101850 49
2009-12-09 07:41:41 51°14.676 2°54.764 4.4 22 8.9 101860 44
2009-12-09 07:41:46 51°14.69 2°54.752 3.5 309 8.9 101860 44
2009-12-09 07:41:51 51°14.704 2°54.739 3 249 8.9 101850 45
2009-12-09 07:41:56 51°14.717 2°54.726 1.7 302 8.9 101850 45
2009-12-09 07:42:01 51°14.731 2°54.714 4.3 250 8.9 101850 44
2009-12-09 07:42:06 51°14.745 2°54.701 4.7 305 8.9 101850 44
2009-12-09 07:42:11 51°14.758 2°54.689 4.9 257 8.9 101850 48
2009-12-09 07:42:16 51°14.772 2°54.676 5.3 304 8.9 101850 48
2009-12-09 07:42:21 51°14.786 2°54.664 5 257 8.9 101850 49
2009-12-09 07:42:25 51°14.796 2°54.653 5 304 8.9 101850 49
2009-12-09 07:42:31 51°14.813 2°54.638 4 253 8.9 101850 45
2009-12-09 07:42:36 51°14.826 2°54.625 2.7 304 8.9 101850 45
2009-12-09 07:42:41 51°14.84 2°54.612 3.6 246 8.9 101850 50
2009-12-09 07:42:46 51°14.854 2°54.6 3.3 303 8.9 101850 50
2009-12-09 07:42:51 51°14.867 2°54.587 3.7 247 8.9 101850 49
2009-12-09 07:42:56 51°14.88 2°54.574 3.7 307 8.9 101850 49
2009-12-09 07:43:01 51°14.894 2°54.562 2.4 252 8.9 101850 48
2009-12-09 07:43:06 51°14.908 2°54.549 2.5 308 8.9 101850 48
2009-12-09 07:43:11 51°14.922 2°54.537 3.9 248 9 101850 45
2009-12-09 07:43:16 51°14.936 2°54.524 4 307 9 101850 45
2009-12-09 07:43:21 51°14.949 2°54.511 4.6 250 9 101850 45
2009-12-09 07:43:26 51°14.963 2°54.499 5.8 303 9 101850 45
2009-12-09 07:43:31 51°14.977 2°54.486 5.4 248 9 101850 50
2009-12-09 07:43:36 51°14.991 2°54.473 4.1 309 9 101850 50
2009-12-09 07:43:41 51°15.005 2°54.46 6.1 255 9 101850 45
2009-12-09 07:43:45 51°15.016 2°54.45 4.8 302 9 101850 45
2009-12-09 07:43:51 51°15.032 2°54.434 4.6 250 9 101850 44
2009-12-09 07:43:56 51°15.046 2°54.421 2.9 309 9 101850 44
2009-12-09 07:44:01 51°15.06 2°54.408 4.9 22 9 101850 44
2009-12-09 07:44:06 51°15.074 2°54.395 4 304 9 101850 44
2009-12-09 07:44:11 51°15.087 2°54.382 4.3 248 9 101850 44
2009-12-09 07:44:16 51°15.101 2°54.369 4.6 303 9 101850 44
2009-12-09 07:44:21 51°15.115 2°54.356 5.6 251 9 101850 44
2009-12-09 07:44:26 51°15.128 2°54.343 5 308 9 101850 44
2009-12-09 07:44:31 51°15.142 2°54.33 4.2 248 9 101850 48
2009-12-09 07:44:37 51°15.158 2°54.314 4.9 303 9 101850 48
2009-12-09 07:44:41 51°15.169 2°54.303 5 252 9 101850 44
2009-12-09 07:44:46 51°15.182 2°54.289 5.9 304 9 101850 44
2009-12-09 07:44:51 51°15.195 2°54.276 5.3 256 9 101850 44
2009-12-09 07:44:56 51°15.209 2°54.262 6 309 9 101850 44
2009-12-09 07:45:01 51°15.222 2°54.248 4.7 258 9 101850 50
2009-12-09 07:45:05 51°15.234 2°54.238 4.3 301 9 101850 50
2009-12-09 07:45:11 51°15.25 2°54.222 3.8 257 9 101850 43
2009-12-09 07:45:16 51°15.264 2°54.209 5.1 305 9 101850 43
2009-12-09 07:45:21 51°15.277 2°54.195 4.7 256 9 101850 47
2009-12-09 07:45:26 51°15.291 2°54.183 4.3 310 9 101850 47
2009-12-09 07:45:31 51°15.305 2°54.169 3.7 261 9 101850 49
2009-12-09 07:45:36 51°15.319 2°54.157 3.7 308 9 101850 49
2009-12-09 07:45:41 51°15.333 2°54.144 3.9 259 9 101850 49
2009-12-09 07:45:46 51°15.346 2°54.132 5.4 308 9 101850 49
2009-12-09 07:45:51 51°15.36 2°54.119 4.4 258 9 101860 49
2009-12-09 07:45:56 51°15.374 2°54.106 5.1 302 9 101860 49
2009-12-09 07:46:01 51°15.388 2°54.093 5.6 255 9 101850 45
2009-12-09 07:46:06 51°15.402 2°54.081 5.5 308 9 101850 45
2009-12-09 07:46:11 51°15.416 2°54.068 5.7 257 9 101850 44
2009-12-09 07:46:16 51°15.43 2°54.056 4.9 302 9 101850 44
2009-12-09 07:46:21 51°15.444 2°54.043 6.7 259 9 101850 47
2009-12-09 07:46:26 51°15.458 2°54.031 4.8 310 9 101850 47
2009-12-09 07:46:31 51°15.472 2°54.018 6.6 256 9.1 101850 49
2009-12-09 07:46:36 51°15.486 2°54.006 6.3 308 9.1 101850 49
2009-12-09 07:46:41 51°15.5 2°53.994 6.4 260 9.1 101860 45
2009-12-09 07:46:45 51°15.512 2°53.984 5.5 279 9.1 101860 45
2009-12-09 07:46:51 51°15.528 2°53.969 3.9 259 9.1 101850 49
2009-12-09 07:46:56 51°15.542 2°53.957 6.4 303 9.1 101850 49
2009-12-09 07:47:01 51°15.556 2°53.944 4.9 250 9.1 101850 50
2009-12-09 07:47:06 51°15.57 2°53.932 6 308 9.1 101850 50
2009-12-09 07:47:11 51°15.584 2°53.919 4.5 263 9.1 101850 44
2009-12-09 07:47:16 51°15.598 2°53.907 5.7 302 9.1 101850 44
2009-12-09 07:47:21 51°15.612 2°53.894 5.7 257 9.1 101850 45
2009-12-09 07:47:26 51°15.626 2°53.882 5.1 306 9.1 101850 45
2009-12-09 07:47:31 51°15.64 2°53.869 3.9 264 9.1 101850 48
2009-12-09 07:47:36 51°15.655 2°53.857 3.9 309 9.1 101850 48
2009-12-09 07:47:41 51°15.669 2°53.844 4.4 252 9.1 101850 44
2009-12-09 07:47:46 51°15.683 2°53.832 4.8 282 9.1 101850 44
2009-12-09 07:47:51 51°15.697 2°53.82 4.3 255 9.1 101860 45
2009-12-09 07:47:56 51°15.711 2°53.807 5.6 304 9.1 101860 45
2009-12-09 07:48:01 51°15.726 2°53.795 5.3 255 9.1 101860 49
2009-12-09 07:48:05 51°15.737 2°53.784 5.1 309 9.1 101860 49
2009-12-09 07:48:11 51°15.754 2°53.77 6 259 9.1 101860 46
2009-12-09 07:48:16 51°15.768 2°53.757 5 303 9.1 101860 46
2009-12-09 07:48:21 51°15.783 2°53.745 6.4 259 9.1 101850 45
2009-12-09 07:48:26 51°15.797 2°53.732 5 305 9.1 101850 45
2009-12-09 07:48:31 51°15.811 2°53.72 5.2 260 9.1 101850 44
2009-12-09 07:48:36 51°15.825 2°53.708 4.3 308 9.1 101850 44
2009-12-09 07:48:41 51°15.84 2°53.696 5.6 258 9.1 101860 48
2009-12-09 07:48:46 51°15.854 2°53.684 3.9 282 9.1 101860 48
2009-12-09 07:48:51 51°15.868 2°53.672 5.6 255 9.2 101860 45
2009-12-09 07:48:57 51°15.886 2°53.657 4.2 310 9.2 101860 45
2009-12-09 07:49:01 51°15.897 2°53.648 4.3 252 9.2 101850 44
2009-12-09 07:49:06 51°15.911 2°53.636 5 304 9.2 101850 44
2009-12-09 07:49:11 51°15.926 2°53.624 5.3 253 9.2 101850 45
2009-12-09 07:49:16 51°15.939 2°53.612 4.7 310 9.2 101850 45
2009-12-09 07:49:21 51°15.954 2°53.599 5 254 9.2 101860 44
2009-12-09 07:49:25 51°15.965 2°53.589 5.5 302 9.2 101860 44
2009-12-09 07:49:31 51°15.981 2°53.574 5 258 9.1 101850 45
2009-12-09 07:49:36 51°15.995 2°53.562 5.5 309 9.1 101850 45
2009-12-09 07:49:41 51°16.009 2°53.55 6.2 258 9.2 101850 48
2009-12-09 07:49:46 51°16.023 2°53.537 5.9 279 9.2 101850 48
2009-12-09 07:49:51 51°16.037 2°53.525 5 259 9.2 101850 45
2009-12-09 07:49:56 51°16.051 2°53.512 4.9 307 9.2 101850 45
2009-12-09 07:50:01 51°16.066 2°53.5 5.5 257 9.2 101850 47
2009-12-09 07:50:06 51°16.08 2°53.488 6.1 305 9.2 101850 47
2009-12-09 07:50:11 51°16.094 2°53.475 6.5 255 9.2 101860 44
2009-12-09 07:50:16 51°16.107 2°53.462 5.6 310 9.2 101860 44
2009-12-09 07:50:21 51°16.121 2°53.45 4.7 252 9.2 101850 45
2009-12-09 07:50:26 51°16.135 2°53.437 6.4 255 9.2 101850 45
2009-12-09 07:50:31 51°16.149 2°53.424 6 256 9.2 101850 48
2009-12-09 07:50:36 51°16.163 2°53.411 5.7 257 9.2 101850 48
2009-12-09 07:50:41 51°16.177 2°53.399 6.2 259 9.2 101850 45
2009-12-09 07:50:46 51°16.191 2°53.387 5.3 307 9.2 101850 45
2009-12-09 07:50:51 51°16.206 2°53.375 5.7 255 9.2 101850 49
2009-12-09 07:50:56 51°16.22 2°53.363 5.5 259 9.2 101850 49
2009-12-09 07:51:01 51°16.234 2°53.351 6 259 9.2 101850 47
2009-12-09 07:51:06 51°16.248 2°53.339 5.5 259 9.2 101850 47
2009-12-09 07:51:11 51°16.262 2°53.327 5.7 259 9.2 101860 47
2009-12-09 07:51:16 51°16.276 2°53.315 4.2 262 9.2 101860 47
2009-12-09 07:51:21 51°16.29 2°53.303 3.7 262 9.2 101850 46
2009-12-09 07:51:26 51°16.305 2°53.291 5.2 260 9.2 101850 46
2009-12-09 07:51:31 51°16.319 2°53.279 5 251 9.2 101860 49
2009-12-09 07:51:36 51°16.333 2°53.267 5.4 255 9.2 101860 49
2009-12-09 07:51:41 51°16.347 2°53.255 5.9 256 9.2 101850 50
2009-12-09 07:51:46 51°16.361 2°53.243 5.7 258 9.2 101850 50
2009-12-09 07:51:51 51°16.375 2°53.231 4.6 261 9.2 101860 49
2009-12-09 07:51:56 51°16.39 2°53.219 3.5 261 9.2 101860 49
2009-12-09 07:52:01 51°16.404 2°53.207 5 256 9.2 101860 46
2009-12-09 07:52:06 51°16.418 2°53.195 5.4 257 9.2 101860 46
2009-12-09 07:52:11 51°16.432 2°53.183 5.1 258 9.2 101860 49
2009-12-09 07:52:16 51°16.447 2°53.171 5.5 254 9.2 101860 49
2009-12-09 07:52:21 51°16.461 2°53.16 4.2 252 9.2 101860 50
2009-12-09 07:52:26 51°16.475 2°53.147 5.6 310 9.2 101860 50
2009-12-09 07:52:31 51°16.49 2°53.135 5.7 256 9.2 101860 50
2009-12-09 07:52:36 51°16.504 2°53.123 5 258 9.2 101860 50
2009-12-09 07:52:41 51°16.518 2°53.111 5.2 255 9.2 101860 49
2009-12-09 07:52:46 51°16.532 2°53.099 4.4 310 9.2 101860 49
2009-12-09 07:52:51 51°16.546 2°53.088 4.8 258 9.2 101860 47
2009-12-09 07:52:56 51°16.561 2°53.076 5.9 258 9.2 101860 47
2009-12-09 07:53:01 51°16.575 2°53.064 5 259 9.2 101860 49
2009-12-09 07:53:06 51°16.589 2°53.052 4.8 253 9.2 101860 49
2009-12-09 07:53:11 51°16.603 2°53.04 5.2 257 9.2 101850 49
2009-12-09 07:53:16 51°16.617 2°53.029 6.5 258 9.2 101850 49
2009-12-09 07:53:21 51°16.632 2°53.017 7 258 9.2 101860 47
2009-12-09 07:53:26 51°16.646 2°53.005 5.8 258 9.2 101860 47
2009-12-09 07:53:31 51°16.66 2°52.993 5.6 259 9.2 101860 46
2009-12-09 07:53:36 51°16.674 2°52.981 5.3 306 9.2 101860 46
2009-12-09 07:53:41 51°16.689 2°52.97 5.5 260 9.2 101850 44
2009-12-09 07:53:46 51°16.703 2°52.958 4.5 257 9.2 101850 44
2009-12-09 07:53:51 51°16.717 2°52.945 5.8 261 9.2 101850 45
2009-12-09 07:53:56 51°16.732 2°52.933 6.3 256 9.2 101850 45
2009-12-09 07:54:01 51°16.746 2°52.922 5.2 258 9.2 101860 48
2009-12-09 07:54:06 51°16.76 2°52.909 3.9 261 9.2 101860 48
2009-12-09 07:54:11 51°16.774 2°52.898 5.4 256 9.2 101860 44
2009-12-09 07:54:16 51°16.788 2°52.885 4.2 302 9.2 101860 44
2009-12-09 07:54:21 51°16.803 2°52.873 2.5 260 9.2 101860 50
2009-12-09 07:54:26 51°16.817 2°52.861 3.8 257 9.2 101860 50
2009-12-09 07:54:31 51°16.831 2°52.849 3.4 258 9.2 101860 49
2009-12-09 07:54:36 51°16.845 2°52.836 3.8 265 9.2 101860 49
2009-12-09 07:54:41 51°16.859 2°52.824 5.8 257 9.2 101850 44
2009-12-09 07:54:46 51°16.873 2°52.812 4.1 310 9.2 101850 44
2009-12-09 07:54:51 51°16.887 2°52.8 4.5 258 9.2 101860 45
2009-12-09 07:54:56 51°16.901 2°52.788 3.5 260 9.2 101860 45
2009-12-09 07:55:01 51°16.915 2°52.775 4.5 259 9.2 101860 44
2009-12-09 07:55:06 51°16.93 2°52.763 4.7 260 9.2 101860 44
2009-12-09 07:55:11 51°16.944 2°52.751 3.9 260 9.2 101850 45
2009-12-09 07:55:16 51°16.958 2°52.739 3.3 259 9.2 101850 45
2009-12-09 07:55:21 51°16.973 2°52.727 3.1 262 9.2 101860 44
2009-12-09 07:55:26 51°16.987 2°52.715 3.5 259 9.2 101860 44
2009-12-09 07:55:31 51°17.001 2°52.703 4.3 261 9.2 101850 50
2009-12-09 07:55:36 51°17.015 2°52.69 4.4 261 9.2 101850 50
2009-12-09 07:55:41 51°17.03 2°52.678 2.8 264 9.2 101860 44
2009-12-09 07:55:46 51°17.044 2°52.665 2.8 262 9.2 101860 44
2009-12-09 07:55:51 51°17.058 2°52.653 3.3 265 9.2 101860 48
2009-12-09 07:55:56 51°17.072 2°52.641 3.8 269 9.2 101860 48
2009-12-09 07:56:01 51°17.087 2°52.629 2.7 263 9.2 101860 46
2009-12-09 07:56:06 51°17.101 2°52.616 3.9 257 9.2 101860 46
2009-12-09 07:56:11 51°17.115 2°52.603 3.6 265 9.2 101860 45
2009-12-09 07:56:16 51°17.129 2°52.591 4.6 308 9.2 101860 45
2009-12-09 07:56:21 51°17.143 2°52.578 4.3 260 9.2 101860 50
2009-12-09 07:56:26 51°17.157 2°52.566 2.8 265 9.2 101860 50
2009-12-09 07:56:31 51°17.172 2°52.553 3.9 261 9.2 101860 46
2009-12-09 07:56:36 51°17.186 2°52.541 5.7 256 9.2 101860 46
2009-12-09 07:56:41 51°17.2 2°52.528 5.1 252 9.2 101860 46
2009-12-09 07:56:46 51°17.214 2°52.516 4.3 260 9.2 101860 46
2009-12-09 07:56:51 51°17.228 2°52.503 4.4 258 9.2 101860 45
2009-12-09 07:56:56 51°17.242 2°52.491 4.7 258 9.2 101860 45
2009-12-09 07:57:01 51°17.257 2°52.478 5.7 258 9.2 101860 50
2009-12-09 07:57:06 51°17.271 2°52.466 5.8 258 9.2 101860 50
2009-12-09 07:57:11 51°17.285 2°52.453 5.1 258 9.2 101860 45
2009-12-09 07:57:16 51°17.299 2°52.44 5 260 9.2 101860 45
2009-12-09 07:57:21 51°17.314 2°52.428 3.8 261 9.2 101860 46
2009-12-09 07:57:26 51°17.328 2°52.415 4.6 304 9.2 101860 46
2009-12-09 07:57:31 51°17.342 2°52.403 5.2 261 9.2 101860 44
2009-12-09 07:57:36 51°17.356 2°52.391 3.8 261 9.2 101860 44
2009-12-09 07:57:41 51°17.371 2°52.378 3.5 261 9.2 101860 49
2009-12-09 07:57:46 51°17.385 2°52.366 5 258 9.2 101860 49
2009-12-09 07:57:51 51°17.399 2°52.353 4.8 260 9.2 101870 44
2009-12-09 07:57:56 51°17.413 2°52.341 3.2 261 9.2 101870 44
2009-12-09 07:58:01 51°17.427 2°52.328 5.1 260 9.2 101860 44
2009-12-09 07:58:06 51°17.442 2°52.316 5.2 259 9.2 101860 44
2009-12-09 07:58:11 51°17.456 2°52.304 4.4 261 9.2 101860 46
2009-12-09 07:58:16 51°17.47 2°52.291 3.8 310 9.2 101860 46
2009-12-09 07:58:21 51°17.485 2°52.278 4.9 257 9.2 101860 45
2009-12-09 07:58:26 51°17.499 2°52.266 6 260 9.2 101860 45
2009-12-09 07:58:31 51°17.513 2°52.253 4.9 256 9.2 101860 44
2009-12-09 07:58:36 51°17.527 2°52.241 4.6 259 9.2 101860 44
2009-12-09 07:58:41 51°17.542 2°52.228 4.3 260 9.2 101860 48
2009-12-09 07:58:46 51°17.556 2°52.215 3.2 261 9.2 101860 48
2009-12-09 07:58:51 51°17.57 2°52.202 4.7 257 9.2 101850 44
2009-12-09 07:58:56 51°17.585 2°52.19 3.8 262 9.2 101850 44
2009-12-09 07:59:01 51°17.598 2°52.177 3.5 265 9.2 101860 50
2009-12-09 07:59:06 51°17.613 2°52.164 5 260 9.2 101860 50
2009-12-09 07:59:11 51°17.627 2°52.152 4.7 260 9.2 101860 48
2009-12-09 07:59:16 51°17.642 2°52.139 4.1 259 9.2 101860 48
2009-12-09 07:59:21 51°17.656 2°52.127 5.1 259 9.2 101850 49
2009-12-09 07:59:26 51°17.67 2°52.114 4.6 308 9.2 101850 49
2009-12-09 07:59:31 51°17.684 2°52.101 3.9 261 9.2 101860 50
2009-12-09 07:59:36 51°17.699 2°52.089 4.4 258 9.2 101860 50
2009-12-09 07:59:41 51°17.713 2°52.076 5.2 258 9.2 101860 45
2009-12-09 07:59:46 51°17.727 2°52.063 5.1 259 9.2 101860 45
2009-12-09 07:59:51 51°17.741 2°52.051 4.7 259 9.2 101860 48
2009-12-09 07:59:56 51°17.755 2°52.038 6.1 260 9.2 101860 48
2009-12-09 08:00:01 51°17.769 2°52.026 4.8 260 9.2 101860 50
2009-12-09 08:00:06 51°17.784 2°52.013 5.8 258 9.2 101860 50
2009-12-09 08:00:11 51°17.798 2°52 6 257 9.2 101850 50
2009-12-09 08:00:16 51°17.812 2°51.988 4.7 307 9.2 101850 50
2009-12-09 08:00:21 51°17.826 2°51.975 4.7 258 9.2 101860 46
2009-12-09 08:00:26 51°17.841 2°51.963 5.6 262 9.2 101860 46
2009-12-09 08:00:31 51°17.855 2°51.95 5.1 260 9.2 101860 44
2009-12-09 08:00:36 51°17.869 2°51.937 4.6 249 9.2 101860 44
2009-12-09 08:00:41 51°17.883 2°51.924 5.5 255 9.2 101860 48
2009-12-09 08:00:46 51°17.897 2°51.912 5.8 262 9.2 101860 48
2009-12-09 08:00:51 51°17.911 2°51.9 5.1 261 9.2 101850 45
2009-12-09 08:00:56 51°17.925 2°51.887 5.4 261 9.2 101850 45
2009-12-09 08:01:01 51°17.94 2°51.875 4.7 258 9.3 101860 49
2009-12-09 08:01:06 51°17.954 2°51.862 6 256 9.3 101860 49
2009-12-09 08:01:11 51°17.968 2°51.849 5.4 257 9.3 101860 46
2009-12-09 08:01:16 51°17.982 2°51.837 3.3 259 9.3 101860 46
2009-12-09 08:01:21 51°17.997 2°51.825 5.1 257 9.3 101860 45
2009-12-09 08:01:26 51°18.011 2°51.812 6 254 9.3 101860 45
2009-12-09 08:01:31 51°18.025 2°51.799 5.2 260 9.3 101850 44
2009-12-09 08:01:36 51°18.039 2°51.787 5.8 259 9.3 101850 44
2009-12-09 08:01:41 51°18.053 2°51.774 5.6 260 9.3 101860 50
2009-12-09 08:01:46 51°18.068 2°51.762 6.1 255 9.3 101860 50
2009-12-09 08:01:51 51°18.082 2°51.749 5.5 258 9.3 101850 49
2009-12-09 08:01:56 51°18.096 2°51.737 5 259 9.3 101850 49
2009-12-09 08:02:01 51°18.11 2°51.726 5.2 259 9.3 101860 45
2009-12-09 08:02:06 51°18.124 2°51.713 5.5 261 9.3 101860 45
2009-12-09 08:02:11 51°18.139 2°51.701 4.4 261 9.2 101860 45
2009-12-09 08:02:16 51°18.153 2°51.688 5.7 259 9.2 101860 45
2009-12-09 08:02:21 51°18.167 2°51.676 4.8 258 9.2 101850 50
2009-12-09 08:02:26 51°18.181 2°51.663 5.9 259 9.2 101850 50
2009-12-09 08:02:31 51°18.196 2°51.651 5 254 9.2 101860 49
2009-12-09 08:02:36 51°18.21 2°51.639 5.7 260 9.2 101860 49
2009-12-09 08:02:41 51°18.224 2°51.626 4.9 257 9.2 101860 45
2009-12-09 08:02:46 51°18.238 2°51.614 5.9 258 9.2 101860 45
2009-12-09 08:02:51 51°18.253 2°51.601 6.2 255 9.2 101850 45
2009-12-09 08:02:56 51°18.267 2°51.588 5.7 307 9.2 101850 45
2009-12-09 08:03:01 51°18.281 2°51.576 5.1 260 9.2 101860 45
2009-12-09 08:03:06 51°18.295 2°51.564 5.1 261 9.2 101860 45
2009-12-09 08:03:11 51°18.31 2°51.551 6.3 258 9.2 101860 49
2009-12-09 08:03:16 51°18.324 2°51.539 4.1 266 9.2 101860 49
2009-12-09 08:03:21 51°18.338 2°51.526 3.1 264 9.2 101850 48
2009-12-09 08:03:26 51°18.353 2°51.513 5.6 258 9.2 101850 48
2009-12-09 08:03:31 51°18.367 2°51.501 5.1 260 9.2 101860 46
2009-12-09 08:03:36 51°18.381 2°51.489 3.1 261 9.2 101860 46
2009-12-09 08:03:41 51°18.396 2°51.476 4.3 261 9.2 101860 49
2009-12-09 08:03:46 51°18.41 2°51.464 6.2 258 9.2 101860 49
2009-12-09 08:03:51 51°18.424 2°51.451 5.1 255 9.2 101860 48
2009-12-09 08:03:56 51°18.438 2°51.439 6.9 256 9.2 101860 48
2009-12-09 08:04:01 51°18.452 2°51.427 6 259 9.2 101870 45
2009-12-09 08:04:06 51°18.466 2°51.414 3.5 260 9.2 101870 45
2009-12-09 08:04:11 51°18.48 2°51.402 5.3 260 9.2 101850 44
2009-12-09 08:04:16 51°18.494 2°51.389 6.2 259 9.2 101850 44
2009-12-09 08:04:21 51°18.508 2°51.377 6.2 260 9.3 101850 45
2009-12-09 08:04:26 51°18.522 2°51.364 4.2 309 9.3 101850 45
2009-12-09 08:04:31 51°18.537 2°51.352 4.4 260 9.2 101860 50
2009-12-09 08:04:36 51°18.551 2°51.339 5.3 261 9.2 101860 50
2009-12-09 08:04:41 51°18.565 2°51.327 5.8 260 9.2 101850 47
2009-12-09 08:04:46 51°18.579 2°51.314 4.3 262 9.2 101850 47
2009-12-09 08:04:51 51°18.593 2°51.301 4.5 259 9.2 101860 50
2009-12-09 08:04:56 51°18.608 2°51.289 3.8 303 9.2 101860 50
2009-12-09 08:05:01 51°18.622 2°51.276 3.2 261 9.2 101850 45
2009-12-09 08:05:06 51°18.636 2°51.264 4.1 263 9.2 101850 45
2009-12-09 08:05:11 51°18.65 2°51.25 3.6 264 9.2 101850 44
2009-12-09 08:05:16 51°18.665 2°51.239 3.9 263 9.2 101850 44
2009-12-09 08:05:21 51°18.679 2°51.225 3.4 264 9.2 101860 49
2009-12-09 08:05:26 51°18.693 2°51.213 4.1 263 9.2 101860 49
2009-12-09 08:05:31 51°18.707 2°51.2 3.6 264 9.2 101860 50
2009-12-09 08:05:36 51°18.721 2°51.186 3.8 257 9.2 101860 50
2009-12-09 08:05:41 51°18.736 2°51.174 3.6 264 9.2 101850 49
2009-12-09 08:05:46 51°18.75 2°51.161 5.1 258 9.2 101850 49
2009-12-09 08:05:51 51°18.764 2°51.149 4 261 9.2 101860 46
2009-12-09 08:05:56 51°18.779 2°51.136 3.7 262 9.2 101860 46
2009-12-09 08:06:01 51°18.792 2°51.123 4 260 9.2 101860 45
2009-12-09 08:06:06 51°18.807 2°51.111 4.9 307 9.2 101860 45
2009-12-09 08:06:11 51°18.821 2°51.098 4.4 261 9.3 101860 45
2009-12-09 08:06:16 51°18.835 2°51.086 4.2 259 9.3 101860 45
2009-12-09 08:06:21 51°18.85 2°51.073 5.8 259 9.2 101860 50
2009-12-09 08:06:26 51°18.864 2°51.06 4.2 263 9.2 101860 50
2009-12-09 08:06:31 51°18.878 2°51.048 3.3 262 9.3 101860 47
2009-12-09 08:06:36 51°18.892 2°51.035 3.8 265 9.3 101860 47
2009-12-09 08:06:41 51°18.906 2°51.021 4 264 9.3 101850 45
2009-12-09 08:06:46 51°18.921 2°51.009 2.9 263 9.3 101850 45
2009-12-09 08:06:51 51°18.935 2°50.996 2.6 262 9.3 101850 44
2009-12-09 08:06:56 51°18.949 2°50.983 5.1 260 9.3 101850 44
2009-12-09 08:07:01 51°18.963 2°50.97 5.1 260 9.3 101850 45
2009-12-09 08:07:06 51°18.977 2°50.957 3.6 262 9.3 101850 45
2009-12-09 08:07:11 51°18.991 2°50.945 3.9 264 9.3 101860 50
2009-12-09 08:07:16 51°19.006 2°50.932 2.7 263 9.3 101860 50
2009-12-09 08:07:21 51°19.02 2°50.919 3.7 264 9.3 101860 47
2009-12-09 08:07:26 51°19.034 2°50.906 4.7 253 9.3 101860 47
2009-12-09 08:07:31 51°19.048 2°50.894 4.9 259 9.3 101850 44
2009-12-09 08:07:36 51°19.062 2°50.881 3.5 261 9.3 101850 44
2009-12-09 08:07:41 51°19.077 2°50.868 4.2 260 9.3 101860 44
2009-12-09 08:07:46 51°19.091 2°50.856 3.9 259 9.3 101860 44
2009-12-09 08:07:51 51°19.105 2°50.843 3 261 9.2 101860 50
2009-12-09 08:07:56 51°19.12 2°50.83 2.1 305 9.2 101860 50
2009-12-09 08:08:01 51°19.134 2°50.818 4.4 259 9.2 101850 49
2009-12-09 08:08:06 51°19.148 2°50.805 2.2 262 9.2 101850 49
2009-12-09 08:08:11 51°19.162 2°50.793 2.9 257 9.2 101860 49
2009-12-09 08:08:16 51°19.177 2°50.78 3.5 262 9.2 101860 49
2009-12-09 08:08:21 51°19.191 2°50.767 3.9 262 9.3 101860 50
2009-12-09 08:08:26 51°19.205 2°50.755 3.7 260 9.3 101860 50
2009-12-09 08:08:31 51°19.219 2°50.742 5.1 254 9.3 101860 49
2009-12-09 08:08:36 51°19.233 2°50.73 4.2 261 9.3 101860 49
2009-12-09 08:08:41 51°19.248 2°50.717 4.4 261 9.3 101860 47
2009-12-09 08:08:46 51°19.261 2°50.704 4.4 263 9.3 101860 47
2009-12-09 08:08:51 51°19.275 2°50.691 2.8 264 9.3 101850 44
2009-12-09 08:08:56 51°19.29 2°50.678 4.4 261 9.3 101850 44
2009-12-09 08:09:01 51°19.304 2°50.665 4.4 261 9.3 101860 45
2009-12-09 08:09:06 51°19.318 2°50.652 2.7 264 9.3 101860 45
2009-12-09 08:09:11 51°19.332 2°50.64 3.3 264 9.3 101860 45
2009-12-09 08:09:16 51°19.346 2°50.627 3.6 256 9.3 101860 45
2009-12-09 08:09:21 51°19.36 2°50.614 4.4 262 9.3 101860 49
2009-12-09 08:09:26 51°19.374 2°50.602 4 256 9.3 101860 49
2009-12-09 08:09:31 51°19.388 2°50.589 4.8 258 9.3 101860 46
2009-12-09 08:09:36 51°19.402 2°50.576 4.2 305 9.3 101860 46
2009-12-09 08:09:41 51°19.416 2°50.563 4.9 261 9.3 101850 47
2009-12-09 08:09:46 51°19.431 2°50.551 3.9 261 9.3 101850 47
2009-12-09 08:09:51 51°19.445 2°50.538 4 261 9.3 101860 50
2009-12-09 08:09:56 51°19.459 2°50.525 4 304 9.3 101860 50
2009-12-09 08:10:01 51°19.473 2°50.511 3.8 262 9.3 101870 49
2009-12-09 08:10:06 51°19.487 2°50.499 3.8 263 9.3 101870 49
2009-12-09 08:10:11 51°19.501 2°50.486 3 262 9.3 101860 44
2009-12-09 08:10:16 51°19.515 2°50.472 3.2 263 9.3 101860 44
2009-12-09 08:10:21 51°19.529 2°50.46 4.6 262 9.3 101860 45
2009-12-09 08:10:26 51°19.543 2°50.447 5.2 256 9.3 101860 45
2009-12-09 08:10:31 51°19.557 2°50.434 4.6 252 9.3 101860 44
2009-12-09 08:10:36 51°19.571 2°50.421 4.6 260 9.3 101860 44
2009-12-09 08:10:41 51°19.585 2°50.409 4.5 262 9.3 101870 45
2009-12-09 08:10:46 51°19.599 2°50.396 4.8 257 9.3 101870 45
2009-12-09 08:10:51 51°19.613 2°50.383 3.6 260 9.3 101850 44
2009-12-09 08:10:56 51°19.627 2°50.37 4.6 253 9.3 101850 44
2009-12-09 08:11:01 51°19.641 2°50.357 5.7 257 9.3 101870 50
2009-12-09 08:11:06 51°19.655 2°50.343 3.7 303 9.3 101870 50
2009-12-09 08:11:11 51°19.669 2°50.33 4.8 258 9.3 101860 44
2009-12-09 08:11:16 51°19.683 2°50.317 5.1 261 9.3 101860 44
2009-12-09 08:11:21 51°19.697 2°50.304 5.4 258 9.3 101860 45
2009-12-09 08:11:26 51°19.711 2°50.291 5.4 261 9.3 101860 45
2009-12-09 08:11:31 51°19.725 2°50.278 4.9 261 9.3 101860 47
2009-12-09 08:11:36 51°19.739 2°50.265 3.2 308 9.3 101860 47
2009-12-09 08:11:41 51°19.753 2°50.252 4.6 259 9.3 101860 45
2009-12-09 08:11:46 51°19.767 2°50.239 3.4 265 9.3 101860 45
2009-12-09 08:11:51 51°19.781 2°50.226 2.8 263 9.3 101860 44
2009-12-09 08:11:56 51°19.795 2°50.213 3.5 260 9.3 101860 44
2009-12-09 08:12:01 51°19.809 2°50.2 4.6 257 9.4 101860 47
2009-12-09 08:12:06 51°19.824 2°50.187 4.3 257 9.4 101860 47
2009-12-09 08:12:11 51°19.838 2°50.174 4.7 256 9.4 101860 50
2009-12-09 08:12:16 51°19.852 2°50.162 4.7 260 9.4 101860 50
2009-12-09 08:12:21 51°19.866 2°50.149 5.1 261 9.4 101860 49
2009-12-09 08:12:26 51°19.88 2°50.136 4.1 261 9.4 101860 49
2009-12-09 08:12:31 51°19.894 2°50.123 3.7 260 9.4 101860 49
2009-12-09 08:12:36 51°19.908 2°50.111 3.8 264 9.4 101860 49
2009-12-09 08:12:41 51°19.923 2°50.098 3 263 9.4 101860 48
2009-12-09 08:12:46 51°19.937 2°50.085 5.6 306 9.4 101860 48
2009-12-09 08:12:51 51°19.951 2°50.073 4.3 266 9.4 101860 46
2009-12-09 08:12:56 51°19.966 2°50.061 3.7 263 9.4 101860 46
2009-12-09 08:13:01 51°19.98 2°50.048 3 265 9.4 101860 45
2009-12-09 08:13:06 51°19.994 2°50.035 3.8 308 9.4 101860 45
2009-12-09 08:13:11 51°20.008 2°50.023 3.8 266 9.4 101860 46
2009-12-09 08:13:16 51°20.022 2°50.01 3.3 259 9.4 101860 46
2009-12-09 08:13:21 51°20.037 2°49.998 4.6 262 9.4 101860 45
2009-12-09 08:13:26 51°20.051 2°49.986 2.7 264 9.4 101860 45
2009-12-09 08:13:31 51°20.065 2°49.973 3.9 259 9.4 101860 48
2009-12-09 08:13:36 51°20.08 2°49.961 5.4 260 9.4 101860 48
2009-12-09 08:13:41 51°20.094 2°49.948 4.6 258 9.4 101860 48
2009-12-09 08:13:46 51°20.108 2°49.937 4.5 261 9.4 101860 48
2009-12-09 08:13:51 51°20.122 2°49.924 4.3 260 9.4 101860 47
2009-12-09 08:13:56 51°20.137 2°49.912 3.9 262 9.4 101860 47
2009-12-09 08:14:01 51°20.151 2°49.899 4.3 261 9.4 101860 50
2009-12-09 08:14:06 51°20.165 2°49.887 4.1 260 9.4 101860 50
2009-12-09 08:14:11 51°20.18 2°49.875 3.9 261 9.4 101860 44
2009-12-09 08:14:16 51°20.194 2°49.863 4.8 259 9.4 101860 44
2009-12-09 08:14:21 51°20.208 2°49.85 6.1 260 9.4 101860 50
2009-12-09 08:14:26 51°20.223 2°49.838 5.9 257 9.4 101860 50
2009-12-09 08:14:31 51°20.237 2°49.826 4 262 9.4 101860 44
2009-12-09 08:14:36 51°20.251 2°49.814 3.2 306 9.4 101860 44
2009-12-09 08:14:41 51°20.266 2°49.802 4.2 254 9.4 101860 44
2009-12-09 08:14:46 51°20.28 2°49.789 4 262 9.4 101860 44
2009-12-09 08:14:51 51°20.295 2°49.777 5.3 260 9.4 101860 46
2009-12-09 08:14:56 51°20.309 2°49.765 3.5 262 9.4 101860 46
2009-12-09 08:15:01 51°20.323 2°49.752 4.3 256 9.4 101860 47
2009-12-09 08:15:06 51°20.338 2°49.74 4.6 308 9.4 101860 47
2009-12-09 08:15:11 51°20.351 2°49.727 4.7 263 9.4 101860 50
2009-12-09 08:15:16 51°20.365 2°49.713 5.8 259 9.4 101860 50
2009-12-09 08:15:21 51°20.379 2°49.7 6.3 256 9.4 101860 44
2009-12-09 08:15:26 51°20.392 2°49.685 5.3 261 9.4 101860 44
2009-12-09 08:15:31 51°20.406 2°49.671 5.7 256 9.4 101850 49
2009-12-09 08:15:36 51°20.419 2°49.656 6.3 258 9.4 101850 49
2009-12-09 08:15:41 51°20.432 2°49.641 6.7 258 9.4 101860 50
2009-12-09 08:15:46 51°20.445 2°49.626 5.2 259 9.4 101860 50
2009-12-09 08:15:51 51°20.459 2°49.612 3.9 262 9.4 101860 47
2009-12-09 08:15:56 51°20.472 2°49.597 5.7 260 9.4 101860 47
2009-12-09 08:16:01 51°20.485 2°49.582 6.2 258 9.4 101860 50
2009-12-09 08:16:06 51°20.498 2°49.568 5.7 252 9.4 101860 50
2009-12-09 08:16:11 51°20.511 2°49.553 4.2 249 9.4 101860 46
2009-12-09 08:16:16 51°20.524 2°49.538 5.2 305 9.4 101860 46
2009-12-09 08:16:21 51°20.537 2°49.522 6.9 259 9.4 101870 45
2009-12-09 08:16:26 51°20.55 2°49.508 6 254 9.4 101870 45
2009-12-09 08:16:31 51°20.563 2°49.492 6.9 255 9.4 101860 45
2009-12-09 08:16:36 51°20.576 2°49.478 6.4 302 9.4 101860 45
2009-12-09 08:16:41 51°20.589 2°49.462 6.4 256 9.4 101860 47
2009-12-09 08:16:46 51°20.602 2°49.448 6.3 260 9.4 101860 47
2009-12-09 08:16:51 51°20.615 2°49.433 6.1 255 9.4 101860 45
2009-12-09 08:16:56 51°20.628 2°49.418 5 257 9.4 101860 45
2009-12-09 08:17:01 51°20.641 2°49.403 4 259 9.4 101870 45
2009-12-09 08:17:06 51°20.654 2°49.388 5 261 9.4 101870 45
2009-12-09 08:17:11 51°20.667 2°49.374 5.2 259 9.4 101860 48
2009-12-09 08:17:16 51°20.68 2°49.359 4.8 262 9.4 101860 48
2009-12-09 08:17:21 51°20.693 2°49.344 6 258 9.4 101860 48
2009-12-09 08:17:26 51°20.706 2°49.329 6 259 9.4 101860 48
2009-12-09 08:17:31 51°20.719 2°49.314 5.4 260 9.4 101870 44
2009-12-09 08:17:36 51°20.732 2°49.299 5 261 9.4 101870 44
2009-12-09 08:17:41 51°20.745 2°49.284 6.5 258 9.4 101860 45
2009-12-09 08:17:46 51°20.758 2°49.269 6.2 256 9.4 101860 45
2009-12-09 08:17:51 51°20.771 2°49.254 5.6 253 9.4 101860 44
2009-12-09 08:17:56 51°20.784 2°49.239 5.5 260 9.4 101860 44
2009-12-09 08:18:01 51°20.797 2°49.225 4.6 261 9.5 101870 45
2009-12-09 08:18:06 51°20.81 2°49.209 6.1 253 9.5 101870 45
2009-12-09 08:18:11 51°20.823 2°49.194 5.9 254 9.5 101870 49
2009-12-09 08:18:16 51°20.835 2°49.179 5.4 254 9.5 101870 49
2009-12-09 08:18:21 51°20.848 2°49.164 5.5 258 9.5 101870 49
2009-12-09 08:18:26 51°20.861 2°49.149 5.6 259 9.5 101870 49
2009-12-09 08:18:31 51°20.874 2°49.134 4.9 259 9.5 101860 47
2009-12-09 08:18:36 51°20.887 2°49.119 4.8 309 9.5 101860 47
2009-12-09 08:18:41 51°20.9 2°49.104 5.8 256 9.5 101860 45
2009-12-09 08:18:46 51°20.913 2°49.09 7.3 257 9.5 101860 45
2009-12-09 08:18:51 51°20.926 2°49.074 7.5 256 9.5 101860 45
2009-12-09 08:18:56 51°20.939 2°49.06 6.5 257 9.5 101860 45
2009-12-09 08:19:01 51°20.952 2°49.045 6.3 258 9.5 101860 49
2009-12-09 08:19:06 51°20.964 2°49.029 7.3 259 9.5 101860 49
2009-12-09 08:19:11 51°20.977 2°49.014 6.4 257 9.5 101850 49
2009-12-09 08:19:16 51°20.99 2°48.999 5.5 251 9.5 101850 49
2009-12-09 08:19:21 51°21.002 2°48.984 7.5 256 9.5 101870 50
2009-12-09 08:19:26 51°21.015 2°48.968 8.1 258 9.5 101870 50
2009-12-09 08:19:31 51°21.028 2°48.953 6.4 261 9.6 101860 49
2009-12-09 08:19:36 51°21.041 2°48.938 7.1 259 9.6 101860 49
2009-12-09 08:19:41 51°21.054 2°48.923 5 258 9.6 101860 45
2009-12-09 08:19:46 51°21.066 2°48.907 5.8 283 9.6 101860 45
2009-12-09 08:19:51 51°21.079 2°48.893 6.9 257 9.6 101870 45
2009-12-09 08:19:56 51°21.092 2°48.878 4.7 257 9.6 101870 45
2009-12-09 08:20:01 51°21.105 2°48.863 5.5 256 9.6 101870 45
2009-12-09 08:20:06 51°21.117 2°48.848 4.3 259 9.6 101870 45
2009-12-09 08:20:11 51°21.131 2°48.834 4.7 255 9.6 101860 49
2009-12-09 08:20:16 51°21.144 2°48.819 5.3 260 9.6 101860 49
2009-12-09 08:20:21 51°21.157 2°48.804 6.1 258 9.6 101860 48
2009-12-09 08:20:26 51°21.17 2°48.789 6.9 256 9.6 101860 48
2009-12-09 08:20:31 51°21.183 2°48.774 8.1 259 9.6 101860 49
2009-12-09 08:20:36 51°21.196 2°48.759 6.3 304 9.6 101860 49
2009-12-09 08:20:41 51°21.209 2°48.744 6.4 255 9.6 101860 50
2009-12-09 08:20:46 51°21.222 2°48.73 7.9 259 9.6 101860 50
2009-12-09 08:20:51 51°21.235 2°48.714 7.4 259 9.6 101860 47
2009-12-09 08:20:56 51°21.248 2°48.7 6.9 258 9.6 101860 47
2009-12-09 08:21:01 51°21.261 2°48.685 6.3 253 9.6 101870 46
2009-12-09 08:21:06 51°21.274 2°48.67 7.5 261 9.6 101870 46
2009-12-09 08:21:11 51°21.287 2°48.655 6.7 259 9.6 101850 47
2009-12-09 08:21:16 51°21.3 2°48.64 6.8 258 9.6 101850 47
2009-12-09 08:21:21 51°21.313 2°48.626 8.2 257 9.6 101860 45
2009-12-09 08:21:26 51°21.325 2°48.611 6.4 259 9.6 101860 45
2009-12-09 08:21:31 51°21.338 2°48.596 5.9 258 9.6 101850 48
2009-12-09 08:21:36 51°21.351 2°48.581 6.3 257 9.6 101850 48
2009-12-09 08:21:41 51°21.364 2°48.566 8.4 259 9.6 101860 50
2009-12-09 08:21:46 51°21.377 2°48.55 8.5 285 9.6 101860 50
2009-12-09 08:21:51 51°21.39 2°48.535 7.4 256 9.6 101860 45
2009-12-09 08:21:56 51°21.403 2°48.52 6.9 260 9.6 101860 45
2009-12-09 08:22:01 51°21.415 2°48.505 5.1 264 9.6 101860 48
2009-12-09 08:22:06 51°21.428 2°48.489 6.2 259 9.6 101860 48
2009-12-09 08:22:11 51°21.441 2°48.474 7.2 257 9.6 101860 47
2009-12-09 08:22:16 51°21.453 2°48.459 7.3 258 9.6 101860 47
2009-12-09 08:22:21 51°21.467 2°48.445 6.3 259 9.6 101870 45
2009-12-09 08:22:26 51°21.479 2°48.429 4.8 262 9.6 101870 45
2009-12-09 08:22:31 51°21.492 2°48.414 5.4 260 9.6 101860 49
2009-12-09 08:22:36 51°21.505 2°48.399 6.4 261 9.6 101860 49
2009-12-09 08:22:41 51°21.518 2°48.384 6.3 257 9.6 101860 49
2009-12-09 08:22:46 51°21.531 2°48.369 4.2 263 9.6 101860 49
2009-12-09 08:22:51 51°21.544 2°48.354 5.5 262 9.6 101870 50
2009-12-09 08:22:56 51°21.556 2°48.34 7 259 9.6 101870 50
2009-12-09 08:23:01 51°21.569 2°48.325 6.2 259 9.6 101860 48
2009-12-09 08:23:06 51°21.582 2°48.31 6 258 9.6 101860 48
2009-12-09 08:23:11 51°21.595 2°48.295 5.6 260 9.6 101870 50
2009-12-09 08:23:16 51°21.608 2°48.28 7.2 306 9.6 101870 50
2009-12-09 08:23:21 51°21.621 2°48.265 6.1 258 9.6 101860 49
2009-12-09 08:23:26 51°21.633 2°48.25 6 259 9.6 101860 49
2009-12-09 08:23:31 51°21.647 2°48.235 5.4 256 9.6 101860 49
2009-12-09 08:23:36 51°21.659 2°48.219 6.4 257 9.6 101860 49
2009-12-09 08:23:41 51°21.672 2°48.204 5.4 259 9.6 101870 46
2009-12-09 08:23:46 51°21.685 2°48.189 6.5 258 9.6 101870 46
2009-12-09 08:23:51 51°21.698 2°48.174 7.3 258 9.6 101860 48
2009-12-09 08:23:56 51°21.711 2°48.159 7.6 259 9.6 101860 48
2009-12-09 08:24:01 51°21.724 2°48.144 5.4 256 9.6 101870 46
2009-12-09 08:24:06 51°21.737 2°48.13 7.9 256 9.6 101870 46
2009-12-09 08:24:11 51°21.749 2°48.114 6.2 260 9.6 101870 49
2009-12-09 08:24:16 51°21.762 2°48.099 7.2 256 9.6 101870 49
2009-12-09 08:24:21 51°21.775 2°48.084 7 257 9.6 101860 50
2009-12-09 08:24:26 51°21.788 2°48.069 7.7 256 9.6 101860 50
2009-12-09 08:24:31 51°21.801 2°48.054 5.7 257 9.6 101870 49
2009-12-09 08:24:36 51°21.814 2°48.039 7.2 258 9.6 101870 49
2009-12-09 08:24:41 51°21.827 2°48.025 4.3 263 9.6 101870 50
2009-12-09 08:24:46 51°21.84 2°48.01 6.1 258 9.6 101870 50
2009-12-09 08:24:51 51°21.852 2°47.995 6.5 256 9.6 101870 45
2009-12-09 08:24:56 51°21.865 2°47.98 7 260 9.6 101870 45
2009-12-09 08:25:01 51°21.878 2°47.965 7.2 258 9.6 101860 45
2009-12-09 08:25:06 51°21.891 2°47.95 5.8 255 9.6 101860 45
2009-12-09 08:25:11 51°21.904 2°47.935 6.2 257 9.6 101870 44
2009-12-09 08:25:16 51°21.917 2°47.92 6.5 302 9.6 101870 44
2009-12-09 08:25:21 51°21.93 2°47.905 5.9 255 9.7 101860 49
2009-12-09 08:25:26 51°21.943 2°47.89 5.9 249 9.7 101860 49
2009-12-09 08:25:31 51°21.956 2°47.875 6.2 255 9.7 101860 50
2009-12-09 08:25:36 51°21.969 2°47.86 7.4 259 9.7 101860 50
2009-12-09 08:25:41 51°21.982 2°47.845 7.5 261 9.7 101860 46
2009-12-09 08:25:46 51°21.995 2°47.83 6.8 258 9.7 101860 46
2009-12-09 08:25:51 51°22.008 2°47.816 6 259 9.6 101870 46
2009-12-09 08:25:56 51°22.02 2°47.8 7.7 258 9.6 101870 46
2009-12-09 08:26:01 51°22.033 2°47.785 5.9 257 9.6 101870 49
2009-12-09 08:26:06 51°22.046 2°47.77 7.4 257 9.6 101870 49
2009-12-09 08:26:11 51°22.059 2°47.755 6.2 255 9.6 101870 49
2009-12-09 08:26:16 51°22.072 2°47.739 7.2 261 9.6 101870 49
2009-12-09 08:26:21 51°22.085 2°47.724 6.7 261 9.6 101870 49
2009-12-09 08:26:26 51°22.098 2°47.71 6.2 259 9.6 101870 49
2009-12-09 08:26:31 51°22.111 2°47.694 6.3 261 9.6 101870 49
2009-12-09 08:26:36 51°22.124 2°47.68 6.7 256 9.6 101870 49
2009-12-09 08:26:41 51°22.137 2°47.665 7.6 256 9.6 101870 49
2009-12-09 08:26:46 51°22.15 2°47.651 5.9 253 9.6 101870 49
2009-12-09 08:26:51 51°22.163 2°47.636 6.4 258 9.6 101870 45
2009-12-09 08:26:56 51°22.176 2°47.622 6.8 260 9.6 101870 45
2009-12-09 08:27:01 51°22.189 2°47.608 8 256 9.6 101860 47
2009-12-09 08:27:06 51°22.202 2°47.593 6.3 254 9.6 101860 47
2009-12-09 08:27:11 51°22.215 2°47.578 5.8 259 9.6 101870 49
2009-12-09 08:27:16 51°22.227 2°47.563 7.3 309 9.6 101870 49
2009-12-09 08:27:21 51°22.241 2°47.548 6.1 254 9.7 101860 46
2009-12-09 08:27:26 51°22.253 2°47.533 5.5 254 9.7 101860 46
2009-12-09 08:27:31 51°22.266 2°47.518 6.3 255 9.6 101860 46
2009-12-09 08:27:36 51°22.279 2°47.503 5.1 260 9.6 101860 46
2009-12-09 08:27:41 51°22.293 2°47.488 4.4 261 9.7 101860 46
2009-12-09 08:27:46 51°22.306 2°47.474 5.1 262 9.7 101860 46
2009-12-09 08:27:51 51°22.319 2°47.458 5.7 260 9.7 101870 47
2009-12-09 08:27:56 51°22.332 2°47.444 6 259 9.7 101870 47
2009-12-09 08:28:01 51°22.345 2°47.429 6.8 259 9.7 101880 46
2009-12-09 08:28:06 51°22.358 2°47.414 5.6 260 9.7 101880 46
2009-12-09 08:28:11 51°22.371 2°47.399 6.8 256 9.6 101870 47
2009-12-09 08:28:16 51°22.384 2°47.384 7.7 261 9.6 101870 47
2009-12-09 08:28:21 51°22.397 2°47.369 5 259 9.7 101870 50
2009-12-09 08:28:26 51°22.41 2°47.354 6.1 306 9.7 101870 50
2009-12-09 08:28:31 51°22.424 2°47.339 5.5 254 9.7 101860 48
2009-12-09 08:28:36 51°22.437 2°47.324 5 259 9.7 101860 48
2009-12-09 08:28:41 51°22.45 2°47.309 5.7 260 9.7 101860 46
2009-12-09 08:28:46 51°22.463 2°47.294 5.4 252 9.7 101860 46
2009-12-09 08:28:51 51°22.476 2°47.279 6.9 255 9.7 101870 47
2009-12-09 08:28:56 51°22.489 2°47.265 6.8 260 9.7 101870 47
2009-12-09 08:29:01 51°22.502 2°47.249 5.5 260 9.7 101870 49
2009-12-09 08:29:06 51°22.515 2°47.234 7.8 261 9.7 101870 49
2009-12-09 08:29:11 51°22.528 2°47.219 6 260 9.7 101860 50
2009-12-09 08:29:16 51°22.542 2°47.204 5.7 262 9.7 101860 50
2009-12-09 08:29:21 51°22.554 2°47.189 4.6 262 9.7 101860 49
2009-12-09 08:29:26 51°22.568 2°47.174 6.3 260 9.7 101860 49
2009-12-09 08:29:31 51°22.581 2°47.159 6.2 261 9.7 101870 45
2009-12-09 08:29:36 51°22.594 2°47.144 6.3 259 9.7 101870 45
2009-12-09 08:29:41 51°22.607 2°47.129 6.9 259 9.7 101870 46
2009-12-09 08:29:46 51°22.62 2°47.114 5.7 251 9.7 101870 46
2009-12-09 08:29:51 51°22.633 2°47.099 4.7 256 9.7 101870 50
2009-12-09 08:29:56 51°22.646 2°47.083 5.6 308 9.7 101870 50
2009-12-09 08:30:01 51°22.66 2°47.069 3.2 259 9.7 101860 50
2009-12-09 08:30:06 51°22.672 2°47.053 4.2 262 9.7 101860 50
2009-12-09 08:30:11 51°22.685 2°47.038 3.2 262 9.7 101860 45
2009-12-09 08:30:16 51°22.699 2°47.023 4.6 255 9.7 101860 45
2009-12-09 08:30:21 51°22.711 2°47.007 4.2 261 9.8 101870 45
2009-12-09 08:30:26 51°22.724 2°46.993 4.7 259 9.8 101870 45
2009-12-09 08:30:31 51°22.737 2°46.978 5 261 9.8 101870 44
2009-12-09 08:30:36 51°22.75 2°46.963 4.2 260 9.8 101870 44
2009-12-09 08:30:41 51°22.764 2°46.948 3.5 260 9.8 101870 49
2009-12-09 08:30:46 51°22.776 2°46.931 4.8 258 9.8 101870 49
2009-12-09 08:30:51 51°22.789 2°46.916 4.3 253 9.8 101860 45
2009-12-09 08:30:56 51°22.802 2°46.9 3.5 255 9.8 101860 45
2009-12-09 08:31:01 51°22.815 2°46.884 4.1 258 9.8 101860 50
2009-12-09 08:31:06 51°22.827 2°46.868 4.9 260 9.8 101860 50
2009-12-09 08:31:11 51°22.84 2°46.851 5.9 256 9.8 101860 50
2009-12-09 08:31:16 51°22.851 2°46.834 4.8 256 9.8 101860 50
2009-12-09 08:31:21 51°22.864 2°46.818 5.8 257 9.8 101850 47
2009-12-09 08:31:26 51°22.876 2°46.8 7.5 258 9.8 101850 47
2009-12-09 08:31:31 51°22.888 2°46.784 7.2 260 9.8 101860 50
2009-12-09 08:31:36 51°22.9 2°46.766 6.7 257 9.8 101860 50
2009-12-09 08:31:41 51°22.912 2°46.749 7.3 256 9.8 101860 49
2009-12-09 08:31:46 51°22.923 2°46.732 6.6 258 9.8 101860 49
2009-12-09 08:31:51 51°22.936 2°46.715 7.7 258 9.8 101860 46
2009-12-09 08:31:56 51°22.948 2°46.698 6 306 9.8 101860 46
2009-12-09 08:32:01 51°22.96 2°46.681 7.7 259 9.8 101860 45
2009-12-09 08:32:06 51°22.972 2°46.665 7.3 257 9.8 101860 45
2009-12-09 08:32:11 51°22.984 2°46.648 5.6 260 9.8 101850 50
2009-12-09 08:32:16 51°22.996 2°46.631 7.2 257 9.8 101850 50
2009-12-09 08:32:21 51°23.008 2°46.614 5.2 254 9.8 101860 46
2009-12-09 08:32:26 51°23.02 2°46.598 7.3 259 9.8 101860 46
2009-12-09 08:32:31 51°23.033 2°46.582 5.9 259 9.8 101850 45
2009-12-09 08:32:36 51°23.044 2°46.564 5.2 261 9.8 101850 45
2009-12-09 08:32:41 51°23.057 2°46.548 6.7 257 9.8 101860 46
2009-12-09 08:32:46 51°23.069 2°46.532 7.7 255 9.8 101860 46
2009-12-09 08:32:51 51°23.081 2°46.514 6.4 257 9.8 101870 45
2009-12-09 08:32:56 51°23.093 2°46.498 7.2 256 9.8 101870 45
2009-12-09 08:33:01 51°23.105 2°46.481 6.2 260 9.8 101860 49
2009-12-09 08:33:06 51°23.117 2°46.464 6.5 255 9.8 101860 49
2009-12-09 08:33:11 51°23.129 2°46.448 8 256 9.8 101860 47
2009-12-09 08:33:16 51°23.14 2°46.431 6.6 260 9.8 101860 47
2009-12-09 08:33:21 51°23.153 2°46.414 6.4 260 9.8 101870 45
2009-12-09 08:33:26 51°23.164 2°46.398 6.8 258 9.8 101870 45
2009-12-09 08:33:31 51°23.176 2°46.381 5.5 256 9.9 101850 45
2009-12-09 08:33:36 51°23.188 2°46.364 5.8 261 9.9 101850 45
2009-12-09 08:33:41 51°23.2 2°46.348 7.7 260 9.9 101860 47
2009-12-09 08:33:46 51°23.212 2°46.33 6.9 257 9.9 101860 47
2009-12-09 08:33:51 51°23.225 2°46.314 5.7 252 9.9 101850 45
2009-12-09 08:33:56 51°23.236 2°46.297 6.2 250 9.9 101850 45
2009-12-09 08:34:01 51°23.248 2°46.28 6.2 251 9.9 101860 46
2009-12-09 08:34:06 51°23.26 2°46.263 8 255 9.9 101860 46
2009-12-09 08:34:11 51°23.272 2°46.247 8.1 258 9.9 101860 46
2009-12-09 08:34:16 51°23.284 2°46.23 7.8 260 9.9 101860 46
2009-12-09 08:34:21 51°23.296 2°46.213 7.1 258 9.9 101850 49
2009-12-09 08:34:26 51°23.308 2°46.196 6 259 9.9 101850 49
2009-12-09 08:34:31 51°23.321 2°46.179 7.3 255 9.9 101860 49
2009-12-09 08:34:36 51°23.332 2°46.162 5.9 249 9.9 101860 49
2009-12-09 08:34:41 51°23.344 2°46.145 6.5 253 9.9 101860 46
2009-12-09 08:34:46 51°23.356 2°46.129 6.2 255 9.9 101860 46
2009-12-09 08:34:51 51°23.368 2°46.111 6.1 253 9.9 101860 46
2009-12-09 08:34:56 51°23.38 2°46.095 6.9 255 9.9 101860 46
2009-12-09 08:35:01 51°23.392 2°46.078 7.3 253 9.9 101860 49
2009-12-09 08:35:06 51°23.405 2°46.062 7.7 309 9.9 101860 49
2009-12-09 08:35:11 51°23.417 2°46.045 8.2 257 9.9 101860 50
2009-12-09 08:35:16 51°23.429 2°46.029 7.6 254 9.9 101860 50
2009-12-09 08:35:21 51°23.441 2°46.012 7.6 258 9.9 101860 46
2009-12-09 08:35:26 51°23.454 2°45.996 6.9 310 9.9 101860 46
2009-12-09 08:35:31 51°23.466 2°45.979 8.3 255 9.9 101860 47
2009-12-09 08:35:36 51°23.478 2°45.962 8.9 254 9.9 101860 47
2009-12-09 08:35:41 51°23.491 2°45.946 8.7 256 10 101860 46
2009-12-09 08:35:46 51°23.502 2°45.929 6.8 254 10 101860 46
2009-12-09 08:35:51 51°23.515 2°45.912 6.2 253 10 101860 48
2009-12-09 08:35:56 51°23.527 2°45.896 6.1 251 10 101860 48
2009-12-09 08:36:01 51°23.54 2°45.879 7.8 259 10 101860 50
2009-12-09 08:36:06 51°23.552 2°45.862 9.4 258 10 101860 50
2009-12-09 08:36:11 51°23.564 2°45.845 8.2 260 10 101860 47
2009-12-09 08:36:16 51°23.576 2°45.829 7.7 258 10 101860 47
2009-12-09 08:36:21 51°23.588 2°45.812 7.1 259 10 101870 47
2009-12-09 08:36:26 51°23.601 2°45.795 8.2 254 10 101870 47
2009-12-09 08:36:31 51°23.612 2°45.777 9 256 10 101870 46
2009-12-09 08:36:36 51°23.625 2°45.762 8.1 255 10 101870 46
2009-12-09 08:36:41 51°23.637 2°45.744 8.1 255 10 101870 45
2009-12-09 08:36:46 51°23.649 2°45.728 7.8 254 10 101870 45
2009-12-09 08:36:51 51°23.661 2°45.711 6.9 254 10 101870 47
2009-12-09 08:36:56 51°23.673 2°45.694 8.3 307 10 101870 47
2009-12-09 08:37:01 51°23.686 2°45.678 6.8 249 10 101870 50
2009-12-09 08:37:06 51°23.698 2°45.661 6.7 258 10 101870 50
2009-12-09 08:37:11 51°23.71 2°45.644 8.5 258 10 101870 48
2009-12-09 08:37:16 51°23.722 2°45.628 8.5 255 10 101870 48
2009-12-09 08:37:21 51°23.734 2°45.611 7.2 257 10 101870 47
2009-12-09 08:37:26 51°23.746 2°45.594 6.2 253 10 101870 47
2009-12-09 08:37:31 51°23.758 2°45.578 7.4 254 10 101860 46
2009-12-09 08:37:36 51°23.77 2°45.561 7.1 254 10 101860 46
2009-12-09 08:37:41 51°23.782 2°45.545 7 256 10 101860 47
2009-12-09 08:37:46 51°23.794 2°45.528 7.2 256 10 101860 47
2009-12-09 08:37:51 51°23.807 2°45.511 6.9 259 10 101870 46
2009-12-09 08:37:56 51°23.819 2°45.495 8 258 10 101870 46
2009-12-09 08:38:01 51°23.83 2°45.477 7.8 259 10.1 101860 46
2009-12-09 08:38:06 51°23.843 2°45.461 7.3 258 10.1 101860 46
2009-12-09 08:38:11 51°23.855 2°45.444 8.2 258 10 101860 50
2009-12-09 08:38:16 51°23.866 2°45.426 5.9 256 10 101860 50
2009-12-09 08:38:21 51°23.879 2°45.41 6.5 258 10.1 101870 45
2009-12-09 08:38:26 51°23.891 2°45.393 6.7 260 10.1 101870 45
2009-12-09 08:38:31 51°23.903 2°45.377 6.1 261 10 101870 48
2009-12-09 08:38:36 51°23.914 2°45.361 6.4 307 10 101870 48
2009-12-09 08:38:41 51°23.925 2°45.348 8.3 257 10 101870 50
2009-12-09 08:38:46 51°23.935 2°45.335 5.1 262 10 101870 50
2009-12-09 08:38:51 51°23.944 2°45.324 5.7 268 10 101870 48
2009-12-09 08:38:56 51°23.953 2°45.315 6.3 303 10 101870 48
2009-12-09 08:39:01 51°23.961 2°45.307 6.6 270 10.1 101870 50
2009-12-09 08:39:06 51°23.97 2°45.302 6.4 39 10.1 101870 50
2009-12-09 08:39:11 51°23.979 2°45.298 5.5 22 10.1 101860 45
2009-12-09 08:39:16 51°23.986 2°45.295 5.7 32 10.1 101860 45
2009-12-09 08:39:21 51°23.994 2°45.294 5.5 27 10.1 101870 50
2009-12-09 08:39:26 51°24.002 2°45.293 3.6 38 10.1 101870 50
2009-12-09 08:39:31 51°24.009 2°45.294 4 20 10.1 101870 48
2009-12-09 08:39:36 51°24.016 2°45.296 4.3 35 10.1 101870 48
2009-12-09 08:39:41 51°24.022 2°45.299 5.1 26 10.1 101880 48
2009-12-09 08:39:46 51°24.028 2°45.302 7 33 10.1 101880 48
2009-12-09 08:39:51 51°24.034 2°45.306 6.8 20 10.1 101880 49
2009-12-09 08:39:56 51°24.04 2°45.311 6.8 41 10.1 101880 49
2009-12-09 08:40:01 51°24.045 2°45.315 6.8 41 10.2 101870 49
2009-12-09 08:40:06 51°24.049 2°45.321 7.9 40 10.2 101870 49
2009-12-09 08:40:11 51°24.054 2°45.326 8.6 39 10.2 101880 47
2009-12-09 08:40:16 51°24.058 2°45.332 8.4 35 10.2 101880 47
2009-12-09 08:40:21 51°24.062 2°45.338 8.6 35 10.2 101880 50
2009-12-09 08:40:26 51°24.065 2°45.344 8.6 32 10.2 101880 50
2009-12-09 08:40:31 51°24.068 2°45.35 8.9 31 10.2 101890 47
2009-12-09 08:40:36 51°24.071 2°45.356 8.6 26 10.2 101890 47
2009-12-09 08:40:41 51°24.074 2°45.363 9.4 27 10.2 101880 48
2009-12-09 08:40:46 51°24.076 2°45.369 8.8 25 10.2 101880 48
2009-12-09 08:40:51 51°24.078 2°45.376 8.4 25 10.2 101890 47
2009-12-09 08:40:56 51°24.08 2°45.382 8 22 10.2 101890 47
2009-12-09 08:41:01 51°24.082 2°45.389 8.7 22 10.1 101870 48
2009-12-09 08:41:06 51°24.084 2°45.396 8.6 17 10.1 101870 48
2009-12-09 08:41:11 51°24.085 2°45.403 8.4 17 10.1 101880 48
2009-12-09 08:41:16 51°24.087 2°45.41 8.4 14 10.1 101880 48
2009-12-09 08:41:21 51°24.088 2°45.417 9.4 10 10.1 101880 47
2009-12-09 08:41:26 51°24.089 2°45.425 9.3 16 10.1 101880 47
2009-12-09 08:41:31 51°24.09 2°45.434 11.2 13 10.1 101870 46
2009-12-09 08:41:36 51°24.09 2°45.442 10.4 15 10.1 101870 46
2009-12-09 08:41:41 51°24.091 2°45.451 9 15 10.1 101870 49
2009-12-09 08:41:46 51°24.092 2°45.461 8.2 9 10.1 101870 49
2009-12-09 08:41:51 51°24.092 2°45.471 8.3 8 10.1 101870 48
2009-12-09 08:41:56 51°24.092 2°45.48 8.1 5 10.1 101870 48
2009-12-09 08:42:01 51°24.091 2°45.49 7.8 4 10.1 101870 49
2009-12-09 08:42:06 51°24.09 2°45.499 6.6 5 10.1 101870 49
2009-12-09 08:42:11 51°24.09 2°45.508 7.8 5 10.1 101860 46
2009-12-09 08:42:16 51°24.089 2°45.517 7.3 4 10.1 101860 46
2009-12-09 08:42:21 51°24.088 2°45.526 6.5 5 10.1 101870 50
2009-12-09 08:42:26 51°24.088 2°45.535 9.3 359 10.1 101870 50
2009-12-09 08:42:31 51°24.087 2°45.544 8.8 358 10.2 101870 48
2009-12-09 08:42:36 51°24.087 2°45.553 9.8 1 10.2 101870 48
2009-12-09 08:42:41 51°24.086 2°45.562 9 5 10.2 101860 49
2009-12-09 08:42:46 51°24.086 2°45.571 7.2 6 10.2 101860 49
2009-12-09 08:42:51 51°24.086 2°45.579 8.1 7 10.1 101870 50
2009-12-09 08:42:56 51°24.086 2°45.588 9.4 9 10.1 101870 50
2009-12-09 08:43:01 51°24.086 2°45.597 7.6 5 10.1 101870 47
2009-12-09 08:43:06 51°24.086 2°45.605 9.9 5 10.1 101870 47
2009-12-09 08:43:11 51°24.087 2°45.613 9 9 10.2 101870 46
2009-12-09 08:43:16 51°24.087 2°45.622 10.2 10 10.2 101870 46
2009-12-09 08:43:21 51°24.088 2°45.63 11.3 10 10.1 101860 48
2009-12-09 08:43:26 51°24.088 2°45.639 11 12 10.1 101860 48
2009-12-09 08:43:31 51°24.089 2°45.647 9.4 13 10.2 101870 50
2009-12-09 08:43:36 51°24.09 2°45.655 10.2 15 10.2 101870 50
2009-12-09 08:43:41 51°24.091 2°45.663 9.6 15 10.2 101870 46
2009-12-09 08:43:46 51°24.092 2°45.672 11 16 10.2 101870 46
2009-12-09 08:43:51 51°24.092 2°45.68 9.8 14 10.1 101870 48
2009-12-09 08:43:56 51°24.093 2°45.688 10.3 14 10.1 101870 48
2009-12-09 08:44:01 51°24.094 2°45.696 9.3 17 10.1 101870 46
2009-12-09 08:44:06 51°24.095 2°45.705 8.8 14 10.1 101870 46
2009-12-09 08:44:11 51°24.096 2°45.713 9.2 8 10.1 101870 48
2009-12-09 08:44:16 51°24.096 2°45.721 9.2 13 10.1 101870 48
2009-12-09 08:44:21 51°24.097 2°45.729 8.1 14 10.1 101880 47
2009-12-09 08:44:26 51°24.098 2°45.737 6.7 15 10.1 101880 47
2009-12-09 08:44:31 51°24.099 2°45.744 6.8 16 10.1 101870 49
2009-12-09 08:44:36 51°24.099 2°45.752 8.6 11 10.1 101870 49
2009-12-09 08:44:41 51°24.1 2°45.76 8.7 12 10.1 101880 46
2009-12-09 08:44:46 51°24.101 2°45.768 8.9 17 10.1 101880 46
2009-12-09 08:44:51 51°24.102 2°45.776 9.1 11 10.1 101870 50
2009-12-09 08:44:56 51°24.102 2°45.784 9.4 13 10.1 101870 50
2009-12-09 08:45:01 51°24.103 2°45.792 8.1 15 10.1 101880 46
2009-12-09 08:45:06 51°24.104 2°45.8 8.7 15 10.1 101880 46
2009-12-09 08:45:11 51°24.105 2°45.807 9.2 15 10.1 101870 46
2009-12-09 08:45:16 51°24.106 2°45.815 9.8 16 10.1 101870 46
2009-12-09 08:45:21 51°24.107 2°45.823 9.4 12 10.1 101870 47
2009-12-09 08:45:26 51°24.108 2°45.831 9.4 14 10.1 101870 47
2009-12-09 08:45:31 51°24.108 2°45.839 9.2 14 10.1 101870 49
2009-12-09 08:45:36 51°24.109 2°45.847 8 16 10.1 101870 49
2009-12-09 08:45:41 51°24.11 2°45.855 8.3 7 10.1 101880 49
2009-12-09 08:45:46 51°24.11 2°45.863 8.8 15 10.1 101880 49
2009-12-09 08:45:51 51°24.111 2°45.87 10.9 11 10.1 101870 50
2009-12-09 08:45:56 51°24.112 2°45.878 10.4 11 10.1 101870 50
2009-12-09 08:46:01 51°24.113 2°45.886 10 13 10.1 101880 49
2009-12-09 08:46:06 51°24.114 2°45.894 10.2 15 10.1 101880 49
2009-12-09 08:46:11 51°24.115 2°45.901 9.2 16 10.1 101880 49
2009-12-09 08:46:16 51°24.115 2°45.909 8.5 15 10.1 101880 49
2009-12-09 08:46:21 51°24.116 2°45.917 9.9 15 10.1 101880 49
2009-12-09 08:46:26 51°24.117 2°45.924 8.8 11 10.1 101880 49
2009-12-09 08:46:31 51°24.118 2°45.932 8 13 10.1 101880 47
2009-12-09 08:46:36 51°24.119 2°45.94 9 15 10.1 101880 47
2009-12-09 08:46:41 51°24.119 2°45.948 9.2 15 10.1 101880 47
2009-12-09 08:46:46 51°24.12 2°45.956 4.4 13 10.1 101880 47
2009-12-09 08:46:51 51°24.121 2°45.964 9.5 14 10.1 101880 46
2009-12-09 08:46:56 51°24.122 2°45.972 9.6 17 10.1 101880 46
2009-12-09 08:47:01 51°24.123 2°45.98 9.8 15 10.1 101880 49
2009-12-09 08:47:06 51°24.124 2°45.989 8.9 19 10.1 101880 49
2009-12-09 08:47:11 51°24.125 2°45.996 9.3 19 10.1 101880 46
2009-12-09 08:47:16 51°24.127 2°46.005 9.1 16 10.1 101880 46
2009-12-09 08:47:21 51°24.128 2°46.013 8.5 19 10.1 101890 49
2009-12-09 08:47:26 51°24.13 2°46.021 8.5 19 10.1 101890 49
2009-12-09 08:47:31 51°24.131 2°46.029 9.6 22 10.1 101880 50
2009-12-09 08:47:36 51°24.133 2°46.038 9.7 23 10.1 101880 50
2009-12-09 08:47:41 51°24.135 2°46.046 8.4 19 10 101880 48
2009-12-09 08:47:46 51°24.137 2°46.054 8.3 22 10 101880 48
2009-12-09 08:47:51 51°24.138 2°46.062 8.9 20 10 101880 49
2009-12-09 08:47:56 51°24.14 2°46.07 9.5 22 10 101880 49
2009-12-09 08:48:01 51°24.142 2°46.078 8.8 25 10 101880 48
2009-12-09 08:48:06 51°24.144 2°46.086 9.3 26 10 101880 48
2009-12-09 08:48:11 51°24.147 2°46.095 8.5 28 10 101890 50
2009-12-09 08:48:16 51°24.149 2°46.103 7.1 29 10 101890 50
2009-12-09 08:48:21 51°24.152 2°46.111 7.1 23 10 101890 46
2009-12-09 08:48:26 51°24.155 2°46.118 6.6 29 10 101890 46
2009-12-09 08:48:31 51°24.157 2°46.126 7.2 28 10 101890 49
2009-12-09 08:48:36 51°24.16 2°46.134 7.2 31 10 101890 49
2009-12-09 08:48:41 51°24.163 2°46.142 7.7 32 10 101890 49
2009-12-09 08:48:46 51°24.166 2°46.15 5.6 27 10 101890 49
2009-12-09 08:48:51 51°24.17 2°46.157 4.7 28 10 101890 50
2009-12-09 08:48:56 51°24.173 2°46.165 7.4 30 10 101890 50
2009-12-09 08:49:01 51°24.176 2°46.172 7.1 31 10.1 101890 48
2009-12-09 08:49:06 51°24.18 2°46.18 6.7 31 10.1 101890 48
2009-12-09 08:49:11 51°24.183 2°46.187 6.6 34 10.1 101890 45
2009-12-09 08:49:16 51°24.187 2°46.194 6.6 36 10.1 101890 45
2009-12-09 08:49:21 51°24.191 2°46.201 6.7 31 10.1 101890 48
2009-12-09 08:49:26 51°24.195 2°46.208 6.3 37 10.1 101890 48
2009-12-09 08:49:31 51°24.199 2°46.215 7.3 35 10.1 101890 50
2009-12-09 08:49:36 51°24.203 2°46.222 7.8 38 10.1 101890 50
2009-12-09 08:49:41 51°24.207 2°46.229 7.9 35 10.1 101900 50
2009-12-09 08:49:46 51°24.211 2°46.236 6.9 40 10.1 101900 50
2009-12-09 08:49:51 51°24.216 2°46.242 7.3 39 10.1 101890 48
2009-12-09 08:49:56 51°24.22 2°46.249 6.3 39 10.1 101890 48
2009-12-09 08:50:01 51°24.224 2°46.256 6.8 40 10 101900 50
2009-12-09 08:50:06 51°24.228 2°46.263 5.9 35 10 101900 50
2009-12-09 08:50:11 51°24.233 2°46.269 5.7 35 10 101890 48
2009-12-09 08:50:16 51°24.238 2°46.276 5.8 33 10 101890 48
2009-12-09 08:50:21 51°24.242 2°46.282 6.6 33 10 101900 45
2009-12-09 08:50:26 51°24.246 2°46.289 5.5 33 10 101900 45
2009-12-09 08:50:31 51°24.251 2°46.295 6.8 34 10 101890 50
2009-12-09 08:50:36 51°24.255 2°46.302 6.6 33 10 101890 50
2009-12-09 08:50:41 51°24.26 2°46.308 5.8 33 10 101890 45
2009-12-09 08:50:46 51°24.264 2°46.314 6.6 42 10 101890 45
2009-12-09 08:50:51 51°24.269 2°46.321 6.6 41 10 101890 49
2009-12-09 08:50:56 51°24.273 2°46.327 6.5 34 10 101890 49
2009-12-09 08:51:01 51°24.278 2°46.334 5.9 36 10.1 101890 45